Regional Weather Roundup
Issued by NWS

Home | Current Version | Previous Version | Text Only | Print | Product List | Glossary Off
Versions: 1 2 3 4 5 6 7 8 9 10 11 12 13 14 15 16 17 18 19 20 21 22 23 24 25 26 27 28 29 30 31 32 33 34 35 36 37 38 39 40 41 42 43 44 45 46 47 48 49 50

000
ASUS45 KBOU 202010
RWRCO

WEATHER ROUNDUP FOR COLORADO
NATIONAL WEATHER SERVICE PUEBLO CO
100 PM MST TUE FEB 20 2018

NOTE: "FAIR" INDICATES FEW OR NO CLOUDS BELOW 12000 FEET WITH NO
SIGNIFICANT WEATHER AND/OR OBSTRUCTIONS TO VISIBILITY.

COZ001>005-013-030-031-202100-
...NORTHWEST COLORADO...

CITY           SKY/WX    TMP DP  RH WIND       PRES   REMARKS
CRAIG          FAIR      13   3  64 CALM      29.94F
HAYDEN         FAIR       8   3  80 S7        29.93F WCI  -3
MEEKER         FAIR      20   5  52 W10       29.92F WCI   9
RABBIT EARS PA NOT AVBL
STEAMBOAT SPGS FAIR      14   1  55 CALM      29.89S
WALDEN         FAIR      14  -4  44 W14       29.80S WCI  -1
$$

COZ006>008-011-202100-
...WEST CENTRAL VALLEYS...

CITY           SKY/WX    TMP DP  RH WIND       PRES   REMARKS
GRAND JUNCTION FAIR      30  16  56 NW8       29.99F WCI  22
MONTROSE       CLOUDY    23  18  81 N9        29.98F WCI  13
EAGLE          CLOUDY    20   8  60 SW18      29.89F WCI   5
RIFLE          FAIR      22   9  57 SE6       29.95F WCI  14
DELTA          NOT AVBL
NUCLA          MOCLDY    28  18  64 W10       29.98S WCI  19
$$

COZ017>023-064>068-202100-
...SOUTHWEST COLORADO...

CITY           SKY/WX    TMP DP  RH WIND       PRES   REMARKS
DURANGO        PTSUNNY   24   9  52 NW9       29.94S WCI  14
CORTEZ         CLOUDY    31   9  39 S13       29.96F WCI  21
PAGOSA SPRINGS PTSUNNY   22   5  47 SW14      29.90S WCI   9
TELLURIDE      CLOUDY    15  -3  45 SW10G17   29.83F WCI   2
WOLF CREEK PAS   N/A      1   0  92 SW24G36   29.74S WCI -22
$$

COZ009-010-012-014-032>034-037-058>063-202100-
...CENTRAL COLORADO...

CITY           SKY/WX    TMP DP  RH WIND       PRES   REMARKS
ASPEN          CLOUDY    16   7  67 NW9       29.81S WCI   4
BUENA VISTA    CLOUDY    23   1  38 W18G28    29.78S WCI   9
COPPER MTN     CLOUDY     5  -8  56 W22G28    29.63R HAZE    WCI -16
BERTHOUD PASS  CLOUDY    -6 -17  59 MISG      29.58S HAZE
COTTONWOOD PAS CLOUDY    18  -6  35 W12G28    29.72R WCI   5
GUNNISON       NOT AVBL
KREMMLING      CLOUDY    23   9  54 CALM      29.84F
LEADVILLE      LGT SNOW   8   1  73 N6        29.70R WCI  -2
MONARCH PASS   FAIR       1  -4  78 W28G40    29.74R WCI -23
SALIDA         FAIR      24   4  42 W18G24    29.90S WCI  10
SUNLIGHT       SNOW       3   0  85 SW8G24    29.76R VSB 1/2 WCI -10
WILKERSON PASS FAIR      10   0  61 SW12G26   29.68S WCI  -4
$$

COZ069>075-202100-
...SAN LUIS VALLEY/SANGRE DE CRISTO MOUNTAINS...

CITY           SKY/WX    TMP DP  RH WIND       PRES   REMARKS
ALAMOSA        FAIR      29  -5  22 SW18G36   29.83S WCI  16
DEL NORTE      FAIR      24   3  41 SW18G26   29.82S WCI   9
LA VETA PASS   CLOUDY    21   1  42 S25G47    29.80S WCI   4
SAGUACHE       FAIR      28   1  31 NW10G22   29.81S WCI  19
$$

COZ035-036-038>040-202100-
...NORTHERN COLORADO FRONT RANGE...

CITY           SKY/WX    TMP DP  RH WIND       PRES   REMARKS
DENVER INTL AP PTSUNNY   10   3  73 E7        29.93F WCI  -1
DMNS CITY PARK NOT AVBL
AURORA         PTSUNNY   10   4  74 E5        29.92S WCI   2
FRONT RANGE AP PTSUNNY   12   3  67 E9        29.94F WCI   0
ERIE MUNI ARPT FAIR      10   1  65 NE3       30.01F
BOULDER MUN AP CLOUDY    10   3  72 NW6       29.95S WCI   1
CENTENNIAL     PTSUNNY   12   5  73 CALM      29.89S
BROOMFIELD     PTSUNNY   10   3  72 NW6       29.92F WCI   1
LOVELAND       FAIR      21   8  57 SE6       29.99S WCI  13
LONGMONT       FAIR      19   2  48 CALM      29.99F
$$

COZ041-046-047-076>085-087-088-202100-
...PIKES PEAK/PALMER DIVIDE AND SOUTHERN FOOTHILLS...

CITY           SKY/WX    TMP DP  RH WIND       PRES   REMARKS
COLO. SPRINGS  LGT SNOW  15  12  88 S7        29.88S FOG     WCI   5
A. F. ACADEMY  MOSUNNY   17   8  68 SE12      29.83F WCI   4
SCHRIEVER AFB  NOT AVBL
CHEYENNE MTN   NOT AVBL
ELLICOTT         N/A    N/A N/A N/A W6        29.87F
FALCON         FLURRIES  18  10  70 S5        29.85R WCI  11
FORT CARSON    FLURRIES  17  11  77 SE5       29.88F WCI  10
LIMON          FAIR      15   6  67 NE10      29.93F WCI   2
MONUMENT HILL  FAIR      12   9  85 NE7       29.82S WCI   2
CANON CITY     PTSUNNY   21  18  86 E5        29.90F WCI  15
WALSENBURG     CLOUDY    18  14  86 N9        29.86F WCI   6
TRINIDAD       FAIR      21  16  81 E12       29.88F WCI   9
$$

COZ042>045-048>051-090-091-202100-
...NORTHEAST COLORADO...

CITY           SKY/WX    TMP DP  RH WIND       PRES   REMARKS
GREELEY ARPT   FAIR      12  -2  53 SE3       30.03F
AKRON          FAIR       8  -1  66 NW9       30.00F WCI  -5
BURLINGTON     FAIR      13   0  56 N16       30.02F WCI  -3
WRAY           FAIR      18   3  53 MISG      30.08S
YUMA           NOT AVBL
STERLING       FAIR      12   0  57 N8        30.06S WCI   1
HOLYOKE        FAIR      19   1  45 N17       30.08F WCI   4
FORT MORGAN    MOCLDY    13  -4  45 CALM      30.03S
$$

COZ086-089-092>099-202100-
...SOUTHEAST COLORADO...

CITY           SKY/WX    TMP DP  RH WIND       PRES   REMARKS
PUEBLO         CLOUDY    19  12  74 SE8       29.96F WCI   9
LA JUNTA       FAIR      21   7  54 N6        30.02F WCI  13
LAMAR          FAIR      24   6  46 N12       30.03F WCI  13
SPRINGFIELD      N/A     25   6  44 N13G21    29.98F WCI  14
$$




USA.gov is the U.S. government's official web portal to all federal, state and local government web resources and services.